Regional Weather Roundup
Issued by NWS

Home | Current Version | Previous Version | Text Only | Print | Product List | Glossary On
Versions: 1 2 3 4 5 6 7 8 9 10 11 12 13 14 15 16 17 18 19 20 21 22 23 24 25 26 27 28 29 30 31 32 33 34 35 36 37 38 39 40 41 42 43 44 45 46 47 48 49 50
000
ASUS43 KTOP 021208
RWRKS

WEATHER ROUNDUP FOR KANSAS
NATIONAL WEATHER SERVICE GOODLAND KS
700 AM CDT THU OCT 02 2014

NOTE:  "FAIR" INDICATES FEW OR NO CLOUDS BELOW 12,000 FEET WITH NO
SIGNIFICANT WEATHER AND/OR OBSTRUCTIONS TO VISIBILITY.

KSZ001>006-013>018-027>032-041>047-021300-
NORTHWEST KANSAS

CITY           SKY/WX    TMP DP  RH WIND       PRES   REMARKS
GOODLAND       MOCLDY    46  45  96 NW15      30.04R
6HR MIN TEMP:  46; 6HR MAX TEMP:  49; 6HR PCP: TRACE;

HAYS           CLOUDY    54  48  82 N18G24    29.87F
HILL CITY      CLOUDY    53  50  89 N18G25    29.91S
6HR MIN TEMP:  53; 6HR MAX TEMP:  59; 6HR PCP:  0.10;

RUSSELL        CLOUDY    55  52  89 N20G28    29.84F
6HR MIN TEMP:  54; 6HR MAX TEMP:  63; 6HR PCP:  0.40;

$$

KSZ061>065-074>080-084>089-021300-
SOUTHWEST KANSAS

CITY           SKY/WX    TMP DP  RH WIND       PRES   REMARKS
DODGE CITY     MOCLDY    54  49  83 N18G35    29.89R
6HR MIN TEMP:  54; 6HR MAX TEMP:  66;

GARDEN CITY    CLOUDY    52  49  89 N20       29.95R
6HR MIN TEMP:  52; 6HR MAX TEMP:  58; 6HR PCP:  0.01;

GREAT BEND     CLOUDY    57  50  77 N26G32    29.83R
LIBERAL        CLOUDY    54  45  71 NW25G31   29.96R
PRATT          CLOUDY    57  52  82 N25G37    29.82R
$$

KSZ066>073-081>083-090>101-021300-
SOUTHEAST KANSAS

CITY           SKY/WX    TMP DP  RH WIND       PRES   REMARKS
CHANUTE        CLOUDY    68  65  90 SE12      29.76R
6HR MIN TEMP:  68; 6HR MAX TEMP:  74; 6HR PCP:  0.01;

COFFEYVILLE    LGT RAIN  72  70  93 S16G23    29.76R
6HR MIN TEMP:  68; 6HR MAX TEMP:  77; 6HR PCP:  0.56;

HUTCHINSON     CLOUDY    66  62  87 NW16G23   29.78R
6HR MIN TEMP:  59; 6HR MAX TEMP:  66;

MEDICINE LODGE   N/A     61  55  81 N16G24    29.76R
NEWTON         CLOUDY    64  57  77 N3        29.76R
PARSONS        LGT RAIN  72  71  97 S8        29.77S
6HR MIN TEMP:  69; 6HR MAX TEMP:  75; 6HR PCP:  0.28;

WICHITA INTL   MOCLDY    70  65  84 NW3       29.73R
6HR MIN TEMP:  66; 6HR MAX TEMP:  71;

WICHITA JABRA  MOCLDY    69  65  86 W6        29.73R
6HR MIN TEMP:  67; 6HR MAX TEMP:  75;

WICHITA MCCONL CLOUDY    70  70 100 W3        29.73R
WINFIELD       CLEAR     72  67  84 S15       29.72R
6HR MIN TEMP:  69; 6HR MAX TEMP:  75; 6HR PCP:  0.01;

$$

KSZ007>012-019>026-033>040-048>060-102>105-021300-
NORTHEAST KANSAS

CITY           SKY/WX    TMP DP  RH WIND       PRES   REMARKS
CONCORDIA      CLOUDY    59  56  89 NW17G29   29.79R THUNDER
6HR MIN TEMP:  59; 6HR MAX TEMP:  64;

EMPORIA        PTCLDY    69  68  96 S7        29.73R
6HR MIN TEMP:  63; 6HR MAX TEMP:  70;

LAWRENCE       CLOUDY    65  64  97 CALM      29.72S FOG
6HR MIN TEMP:  63; 6HR MAX TEMP:  66;

MANHATTAN      CLOUDY    64  63  96 VRB3      29.74R FOG
6HR MIN TEMP:  62; 6HR MAX TEMP:  65;

MARYSVILLE     CLOUDY    63  59  88 NE6       29.75F
OLATHE IND     CLOUDY    69  67  93 S12       29.75R
6HR MIN TEMP:  64; 6HR MAX TEMP:  69; 6HR PCP: TRACE;

OLATHE EXE     LGT RAIN  68  66  93 SW7       29.75R
6HR MIN TEMP:  64; 6HR MAX TEMP:  68; 6HR PCP:  0.02;

SALINA         CLOUDY    66  62  87 NW10      29.80R
6HR MIN TEMP:  62; 6HR MAX TEMP:  68;

TOPEKA BILLARD MOCLDY    65  65 100 CALM      29.72R
6HR MIN TEMP:  65; 6HR MAX TEMP:  69;

TOPEKA FORBES  MOCLDY    65  64  97 SE5       29.72R FOG
6HR MIN TEMP:  65; 6HR MAX TEMP:  68;

$$


USA.gov is the U.S. government's official web portal to all federal, state and local government web resources and services.